Location: Rounton
(54.4000°N, 1.3500°W)
Time: 14:56:23
(UTC+00:00)

Transit 4A - Pass Details

Date: 29 November 2021
Orbit: 864 x 981 km, 66.8° (Epoch: 20 January)

Event Time Altitude Azimuth Distance (km) Brightness Sun altitude
Rises 19:22:05 0° 169° (S) 3,454 - -30.2°
Reaches altitude 10° 19:25:06 10° 154° (SSE) 2,535 - -30.6°
Maximum altitude 19:29:21 21° 107° (ESE) 1,892 - -31.2°
Drops below altitude 10° 19:33:42 10° 61° (ENE) 2,600 - -31.9°
Sets 19:36:49 0° 46° (NE) 3,568 - -32.3°
